TimePDT,TemperatureF,Dew PointF,Humidity,Sea Level PressureIn,VisibilityMPH,Wind Direction,Wind SpeedMPH,Gust SpeedMPH,PrecipitationIn,Events,Conditions,WindDirDegrees,DateUTC
12:53 AM,55.9,46.0,69,29.96,10.0,Calm,Calm,-,N/A,,Clear,0,2013-06-06 07:53:00
1:53 AM,50.0,44.1,80,29.96,10.0,Calm,Calm,-,N/A,,Clear,0,2013-06-06 08:53:00
2:53 AM,51.1,46.9,86,29.95,10.0,Calm,Calm,-,N/A,,Clear,0,2013-06-06 09:53:00
3:53 AM,48.0,43.0,83,29.95,10.0,Calm,Calm,-,N/A,,Clear,0,2013-06-06 10:53:00
4:53 AM,46.9,41.0,80,29.95,10.0,Calm,Calm,-,N/A,,Clear,0,2013-06-06 11:53:00
5:53 AM,46.9,44.1,90,29.96,10.0,Calm,Calm,-,N/A,,Clear,0,2013-06-06 12:53:00
6:53 AM,55.9,48.0,75,29.95,10.0,Calm,Calm,-,N/A,,Clear,0,2013-06-06 13:53:00
7:53 AM,64.0,51.1,63,29.95,10.0,Calm,Calm,-,N/A,,Clear,0,2013-06-06 14:53:00
8:53 AM,68.0,48.0,49,29.96,10.0,North,3.5,-,N/A,,Clear,350,2013-06-06 15:53:00
9:53 AM,72.0,50.0,46,29.96,10.0,NNW,4.6,-,N/A,,Clear,330,2013-06-06 16:53:00
10:53 AM,75.0,50.0,41,29.97,10.0,Variable,3.5,-,N/A,,Clear,0,2013-06-06 17:53:00
11:53 AM,79.0,43.0,28,29.96,10.0,South,3.5,-,N/A,,Clear,190,2013-06-06 18:53:00
12:53 PM,81.0,41.0,24,29.95,10.0,Variable,3.5,-,N/A,,Clear,0,2013-06-06 19:53:00
1:53 PM,86.0,42.1,21,29.93,10.0,SW,9.2,-,N/A,,Unknown,220,2013-06-06 20:53:00
2:53 PM,87.1,33.1,15,29.91,10.0,West,10.4,-,N/A,,Clear,270,2013-06-06 21:53:00
3:53 PM,89.1,27.0,11,29.90,10.0,West,12.7,18.4,N/A,,Clear,280,2013-06-06 22:53:00
4:53 PM,89.1,26.1,10,29.89,10.0,West,12.7,-,N/A,,Clear,280,2013-06-06 23:53:00
5:53 PM,87.1,37.0,17,29.89,10.0,NNW,18.4,25.3,N/A,,Clear,330,2013-06-07 00:53:00
6:53 PM,84.0,39.0,20,29.89,10.0,NNW,18.4,23.0,N/A,,Clear,330,2013-06-07 01:53:00
7:53 PM,80.1,37.9,22,29.89,10.0,NNW,17.3,23.0,N/A,,Clear,340,2013-06-07 02:53:00
8:53 PM,75.9,48.0,37,29.91,10.0,NW,13.8,-,N/A,,Clear,320,2013-06-07 03:53:00
9:53 PM,72.0,52.0,49,29.94,10.0,NW,9.2,-,N/A,,Clear,310,2013-06-07 04:53:00
10:53 PM,66.0,54.0,65,29.96,10.0,WNW,5.8,-,N/A,,Clear,290,2013-06-07 05:53:00
11:53 PM,62.1,53.1,72,29.96,10.0,Variable,3.5,-,N/A,,Clear,0,2013-06-07 06:53:00